When you browse on this site, cookies collect data to enhance your experience and personalize the content and advertising you see.
Visit our Privacy Policy to learn more. By continuing to use the site, you agree to this use of cookies and data.
  • In Hungary
  • List of Countries
  • For 7 days
  • Water Temperature
  • Weather Map
  • News
  • Weather Widgets
  • user-avatar
    Login

    Hourly Weather Gregorowce

    Today, 17 September, Tuesday

    Time Temperature Precipitation Wind Pressure Humidity
    00:00 +8°C° 0 mm 4 mps 743 mmHg 73%
    01:00 +8°C° 0 mm 5 mps 743 mmHg 76%
    02:00 +7°C° 0 mm 4 mps 743 mmHg 81%
    03:00 +7°C° 0 mm 4 mps 743 mmHg 84%
    04:00 +6°C° 0 mm 4 mps 743 mmHg 86%
    05:00 +6°C° 0 mm 5 mps 743 mmHg 88%
    06:00 +7°C° 0 mm 5 mps 743 mmHg 85%
    07:00 +8°C° 0 mm 5 mps 743 mmHg 82%
    08:00 +9°C° 0 mm 6 mps 743 mmHg 78%
    09:00 +10°C° 0.1 mm 6 mps 742 mmHg 73%
    10:00 +11°C° 0.1 mm 7 mps 742 mmHg 68%
    11:00 +14°C° 0.1 mm 7 mps 742 mmHg 62%
    12:00 +14°C° 0.3 mm 7 mps 741 mmHg 60%
    13:00 +13°C° 0.3 mm 8 mps 741 mmHg 58%
    14:00 +15°C° 0.3 mm 8 mps 740 mmHg 56%
    15:00 +13°C° 0.3 mm 8 mps 740 mmHg 59%
    16:00 +12°C° 0.3 mm 7 mps 739 mmHg 61%
    17:00 +12°C° 0.3 mm 7 mps 738 mmHg 64%
    18:00 +10°C° 0.4 mm 6 mps 738 mmHg 70%
    19:00 +9°C° 0.4 mm 6 mps 738 mmHg 76%
    20:00 +8°C° 0.4 mm 5 mps 738 mmHg 82%
    21:00 +8°C° 0.6 mm 6 mps 737 mmHg 83%
    22:00 +7°C° 0.6 mm 6 mps 737 mmHg 84%
    23:00 +6°C° 0.6 mm 7 mps 737 mmHg 85%

    Tomorrow, 18 September, Wednesday

    Time Temperature Precipitation Wind Pressure Humidity
    00:00 +6°C° 0.4 mm 7 mps 737 mmHg 85%
    01:00 +5°C° 0.4 mm 7 mps 737 mmHg 85%
    02:00 +5°C° 0.4 mm 7 mps 737 mmHg 86%
    03:00 +4°C° 0 mm 7 mps 736 mmHg 86%
    04:00 +4°C° 0 mm 7 mps 736 mmHg 87%
    05:00 +3°C° 0 mm 7 mps 736 mmHg 88%
    06:00 +4°C° 0.1 mm 7 mps 736 mmHg 86%
    07:00 +5°C° 0.1 mm 8 mps 737 mmHg 85%
    08:00 +6°C° 0.1 mm 8 mps 737 mmHg 83%
    09:00 +7°C° 0.1 mm 8 mps 738 mmHg 78%
    10:00 +9°C° 0.1 mm 8 mps 739 mmHg 72%
    11:00 +10°C° 0.1 mm 8 mps 740 mmHg 67%
    12:00 +11°C° 0.2 mm 8 mps 741 mmHg 65%
    13:00 +12°C° 0.2 mm 9 mps 741 mmHg 62%
    14:00 +12°C° 0.2 mm 9 mps 742 mmHg 60%
    15:00 +12°C° 0.2 mm 9 mps 742 mmHg 63%
    16:00 +11°C° 0.2 mm 8 mps 743 mmHg 66%
    17:00 +11°C° 0.2 mm 7 mps 744 mmHg 68%
    18:00 +10°C° 0 mm 6 mps 744 mmHg 72%
    19:00 +8°C° 0 mm 5 mps 744 mmHg 77%
    20:00 +7°C° 0 mm 4 mps 745 mmHg 81%
    21:00 +7°C° 0 mm 4 mps 745 mmHg 83%
    22:00 +6°C° 0 mm 4 mps 746 mmHg 84%
    23:00 +6°C° 0 mm 4 mps 746 mmHg 86%

    Day after tomorrow, 19 September, Thursday

    Time Temperature Precipitation Wind Pressure Humidity
    00:00 +5°C° 0 mm 4 mps 746 mmHg 88%
    01:00 +5°C° 0 mm 4 mps 747 mmHg 89%
    02:00 +5°C° 0 mm 4 mps 747 mmHg 91%
    03:00 +5°C° 0 mm 4 mps 747 mmHg 91%
    04:00 +5°C° 0 mm 5 mps 747 mmHg 92%
    05:00 +3°C° 0 mm 5 mps 747 mmHg 92%
    06:00 +5°C° 0 mm 5 mps 747 mmHg 91%
    07:00 +6°C° 0 mm 5 mps 748 mmHg 89%
    08:00 +6°C° 0 mm 5 mps 748 mmHg 88%
    09:00 +8°C° 0.1 mm 5 mps 748 mmHg 79%
    10:00 +10°C° 0.1 mm 5 mps 748 mmHg 71%
    11:00 +12°C° 0.1 mm 5 mps 749 mmHg 63%
    12:00 +13°C° 0.3 mm 6 mps 749 mmHg 61%
    13:00 +13°C° 0.3 mm 6 mps 749 mmHg 60%
    14:00 +14°C° 0.3 mm 6 mps 749 mmHg 58%
    15:00 +13°C° 0.4 mm 6 mps 749 mmHg 61%
    16:00 +12°C° 0.4 mm 5 mps 749 mmHg 64%
    17:00 +12°C° 0.4 mm 5 mps 749 mmHg 67%
    18:00 +11°C° 0.3 mm 4 mps 749 mmHg 72%
    19:00 +8°C° 0.3 mm 4 mps 749 mmHg 76%
    20:00 +8°C° 0.3 mm 3 mps 749 mmHg 81%
    21:00 +6°C° 0 mm 4 mps 750 mmHg 84%
    22:00 +6°C° 0 mm 4 mps 750 mmHg 87%
    23:00 +5°C° 0 mm 4 mps 750 mmHg 90%

    20 September, Friday

    Time Temperature Precipitation Wind Pressure Humidity
    00:00 +4°C° 0 mm 4 mps 750 mmHg 91%
    01:00 +4°C° 0 mm 4 mps 751 mmHg 92%
    02:00 +3°C° 0 mm 3 mps 751 mmHg 93%
    03:00 +3°C° 0 mm 3 mps 751 mmHg 93%
    04:00 +3°C° 0 mm 3 mps 751 mmHg 93%
    05:00 +2°C° 0 mm 3 mps 751 mmHg 93%
    06:00 +3°C° 0 mm 4 mps 751 mmHg 89%
    07:00 +4°C° 0 mm 4 mps 751 mmHg 85%
    08:00 +5°C° 0 mm 4 mps 751 mmHg 81%
    09:00 +6°C° 0.2 mm 4 mps 751 mmHg 79%
    10:00 +7°C° 0.2 mm 4 mps 751 mmHg 76%
    11:00 +8°C° 0.2 mm 4 mps 752 mmHg 74%
    12:00 +9°C° 0.2 mm 5 mps 751 mmHg 67%
    13:00 +10°C° 0.2 mm 6 mps 751 mmHg 60%
    14:00 +11°C° 0.2 mm 6 mps 751 mmHg 53%
    15:00 +11°C° 0 mm 6 mps 751 mmHg 53%
    16:00 +11°C° 0 mm 6 mps 751 mmHg 53%
    17:00 +10°C° 0 mm 5 mps 752 mmHg 53%
    18:00 +10°C° 0 mm 4 mps 752 mmHg 59%
    19:00 +7°C° 0 mm 4 mps 752 mmHg 66%
    20:00 +5°C° 0 mm 3 mps 753 mmHg 72%
    21:00 +5°C° 0 mm 3 mps 753 mmHg 73%
    22:00 +4°C° 0 mm 3 mps 754 mmHg 74%
    23:00 +4°C° 0 mm 2 mps 754 mmHg 75%

    21 September, Saturday

    Time Temperature Precipitation Wind Pressure Humidity
    00:00 +4°C° 0 mm 2 mps 754 mmHg 77%
    01:00 +4°C° 0 mm 2 mps 754 mmHg 79%
    02:00 +4°C° 0 mm 1 mps 755 mmHg 80%
    03:00 +4°C° 0 mm 1 mps 755 mmHg 81%
    04:00 +4°C° 0 mm 1 mps 755 mmHg 82%
    05:00 +4°C° 0 mm 1 mps 755 mmHg 83%
    06:00 +5°C° 0 mm 1 mps 755 mmHg 80%
    07:00 +6°C° 0 mm 1 mps 755 mmHg 76%
    08:00 +7°C° 0 mm 1 mps 755 mmHg 73%
    09:00 +8°C° 0 mm 2 mps 755 mmHg 66%
    10:00 +10°C° 0 mm 2 mps 756 mmHg 59%
    11:00 +12°C° 0 mm 3 mps 756 mmHg 52%
    12:00 +12°C° 0 mm 3 mps 755 mmHg 50%
    13:00 +13°C° 0 mm 3 mps 755 mmHg 47%
    14:00 +14°C° 0 mm 4 mps 755 mmHg 44%
    15:00 +14°C° 0 mm 3 mps 755 mmHg 49%
    16:00 +14°C° 0 mm 3 mps 754 mmHg 53%
    17:00 +14°C° 0 mm 3 mps 754 mmHg 57%
    18:00 +12°C° 0 mm 3 mps 754 mmHg 63%
    19:00 +11°C° 0 mm 3 mps 754 mmHg 69%
    20:00 +10°C° 0 mm 2 mps 754 mmHg 74%
    21:00 +10°C° 0 mm 3 mps 754 mmHg 77%
    22:00 +9°C° 0 mm 3 mps 754 mmHg 79%
    23:00 +9°C° 0 mm 3 mps 754 mmHg 82%

    22 September, Sunday

    Time Temperature Precipitation Wind Pressure Humidity
    00:00 +9°C° 0 mm 3 mps 754 mmHg 84%
    01:00 +9°C° 0 mm 3 mps 754 mmHg 86%
    02:00 +8°C° 0 mm 3 mps 754 mmHg 88%
    03:00 +8°C° 0 mm 3 mps 754 mmHg 90%
    04:00 +8°C° 0 mm 3 mps 754 mmHg 91%
    05:00 +8°C° 0 mm 3 mps 754 mmHg 92%
    06:00 +9°C° 0 mm 3 mps 754 mmHg 88%
    07:00 +9°C° 0 mm 3 mps 754 mmHg 83%
    08:00 +10°C° 0 mm 3 mps 754 mmHg 79%
    09:00 +12°C° 0 mm 3 mps 754 mmHg 71%
    10:00 +14°C° 0 mm 3 mps 754 mmHg 64%
    11:00 +17°C° 0 mm 4 mps 754 mmHg 56%
    12:00 +18°C° 0 mm 4 mps 754 mmHg 53%
    13:00 +19°C° 0 mm 4 mps 754 mmHg 50%
    14:00 +20°C° 0 mm 4 mps 753 mmHg 47%
    15:00 +20°C° 0 mm 3 mps 753 mmHg 49%
    16:00 +20°C° 0 mm 2 mps 753 mmHg 52%
    17:00 +19°C° 0 mm 2 mps 753 mmHg 55%
    18:00 +18°C° 0 mm 1 mps 752 mmHg 59%
    19:00 +16°C° 0 mm 1 mps 752 mmHg 63%
    20:00 +14°C° 0 mm 1 mps 752 mmHg 68%
    21:00 +13°C° 0 mm 1 mps 752 mmHg 67%
    22:00 +13°C° 0 mm 2 mps 752 mmHg 67%
    23:00 +13°C° 0 mm 2 mps 752 mmHg 67%
    Show more